カタログに戻る

STARLINK-38304

運用中通信SSO
NORAD 100374·PAYLOAD·🇺🇸 United States

打ち上げ Aug 19, 2026 から Vandenberg Space Force Base

Loading…

次のパス (今後24時間)

TLE

最新Source: Space-Track

元期: Sep 14, 2026, 03:18 UTC

1 A0374U 26190D   26257.13750629  .00174389  00000-0  11471-2 0  9995
2 A0374  97.2832 111.1741 0002698  69.3466 290.8088 15.75172615  5372

AllMySatでSTARLINK-38304をリアルタイム追跡

Download on the App Store